Flag for Germany Weather past 2 weeks in Aachen, North Rhine-Westphalia, Germany

Now
80 °F

Sunny.


Feels Like: 82 °F
Forecast: 63 / 85 °F
Wind: 2 mph from Southeast

Location: Maastricht Airport Zuid Limburg

Current Time: Jul 4, 2015 at 9:14:54 AM

Latest Report: Jul 4, 2015 at 8:00 AM


Visibility: 10 mi

Pressure: 30.03 "Hg

Humidity: 69%

Dew point: 69 °F

Location of AachenLocation

Historic Weather in Aachen — Graph

°F

Aachen temperature yesterday

Maximum temperature yesterday: 90 °F (at 6:00 PM)
Minimum temperature yesterday: 67 °F (at 6:00 AM)
Average temperature yesterday: 78 °F

Past Weeks' High & Low Weather Summary

 TemperatureHumidityPressure
High100 °F (Jul 2, 4:00 PM)99% (Jun 23, 3:00 AM)30.25 "Hg (Jun 23, 3:00 AM)
Low48 °F (Jun 23, 12:00 AM)26% (Jul 2, 4:00 PM)29.74 "Hg (Jun 22, 10:00 PM)
Average67 °F67%30.08 "Hg
* Reported Jun 19 8:00 AM — Jul 4 7:00 AM, Aachen, Weather by CustomWeather, © 2015

Note: Actual official high and low records may vary slightly from our data, if they occured in-between our weather recording intervals... More about our weather records

Advertising

Aachen weather history for previous 24 hours

 ConditionsComfort  
Time TempWeatherWind HumidityBarometerVisibility
7:00 AM
Sat, Jul 4
78 °FSunny.2 mph72%30.02 "Hg10 mi
6:00 AM77 °FSunny.5 mph74%30.02 "Hg11 mi
5:00 AM76 °FPassing clouds.6 mph75%30.03 "Hg10 mi
4:00 AM77 °FClear.5 mph74%30.05 "Hg9 mi
3:00 AM77 °FPassing clouds.5 mph72%30.07 "Hg11 mi
2:00 AM77 °FClear.5 mph74%30.09 "Hg10 mi
1:00 AM78 °FPassing clouds.5 mph70%30.11 "Hg10 mi
12:00 AM78 °FClear.5 mph71%30.12 "Hg12 mi
11:00 PM
Fri, Jul 3
80 °FClear.5 mph65%30.13 "Hg16 mi
10:00 PM82 °FPassing clouds.6 mph62%30.14 "Hg14 mi
9:00 PM85 °FSunny.6 mph56%30.14 "Hg12 mi
8:00 PM87 °FSunny.5 mph49%30.14 "Hg15 mi
7:00 PM89 °FSunny.5 mph48%30.15 "Hg16 mi
6:00 PM90 °FSunny.3 mph47%30.16 "Hg15 mi
5:00 PM89 °FSunny.2 mph48%30.17 "Hg14 mi
4:00 PM89 °FSunny.3 mph46%30.19 "Hg13 mi
3:00 PM87 °FSunny.2 mph49%30.20 "Hg18 mi
2:00 PM86 °FSunny.3 mph51%30.22 "Hg14 mi
1:00 PM83 °FSunny.N/A55%30.23 "Hg15 mi
12:00 PM80 °FSunny.2 mph57%30.23 "Hg17 mi
11:00 AM78 °FSunny.2 mph62%30.24 "Hg15 mi
10:00 AM75 °FSunny.2 mph69%30.25 "Hg11 mi
9:00 AM73 °FSunny.2 mph75%30.25 "Hg10 mi
Weather by CustomWeather, © 2015

See weather overviewHow to use our weather pages